星链-1304 (STARLINK-1304 )

导读 | 星芒AI

STARLINK-1304 是 SpaceX Starlink 项目中的第 1304 颗卫星,属于其低轨卫星互联网星座的一部分。该卫星于 2023 年发射,运行在约 550 公里的近地轨道上,旨在为全球用户提供高速互联网服务。Starlink 卫星采用先进推进系统和激光通信技术,以提升网络效率和稳定性。STARLINK-1304 的部署有助于扩大 Starlink 在全球范围内的覆盖,特别是在偏远和网络基础设施薄弱的地区。

基本信息
目录编号:
45376
目录名称:
STARLINK-1304
国际标识:
2020-019S
轨道中心:
EARTH
卫星名称:
星链-1304
卫星全名:
星链-1304 (STARLINK-1304 )
卫星状态:
在轨 (已飞行2099 天)
发射日期:
2020-03-18 UTC
国别 :
美国 (US)
星等 :
--
轨道信息
数据来源 国际轨道数据 AOE轨道数据
星历时间 2025-12-15T04:54:34+0800
1天前
查看轨道信息
2025-12-14T13:00:00+0800
1天前
查看轨道信息
半长轴 6925.371km 6925.358km
偏心率 0.0001357 0.0001278
轨道倾角 53.053° 53.053°
近地点辐角 91.408° 102.698°
升交点赤经 187.381° 190.356°
平近点角 268.707° 260.601°
近地点 546.296km 546.337km
远地点 548.176km 548.109km
周期 95.593分钟 95.592分钟
每日圈数 15.063928 15.063971
详细信息
固有亮度:
5
最大亮度:
2.5
卫星平台:
Starlink V1.0
覆盖范围:
全球
运营商:
太空探索技术公司
运营商所在国:
美国
制造商(研发单位):
太空探索技术公司
制造商所在国:
美国
使用方式:
暂无
卫星简介
星链(Starlink)计划是由太空探索技术公司(SpaceX)提出的一个巨型低轨卫星互联网星座项目,计划在2019年至2024年间在太空搭建由约1.2万颗卫星组成的“星链”网络,其中1584颗将部署在地球上空550千米处的近地轨道,并从2020年开始工作。该卫星仍在工作。
2D轨道图
3D轨道图
轨道高度分析图
轨道倾角分析图
轨道综合分析图
查看轨道综合分析图